| time (UTC) | temp F | wind direction | speed MPH | gust MPH | rain 1hr in | rain 24hr in | rain mn in | humidity % | barometer mb |
| 20260507020329 | 55 | 237 | 5.0 | 9.0 | 0.01 | 0.34 | 0.34 | 93 | 1005.0 |
| 20260507014834 | 55 | 227 | 5.0 | 7.0 | 0.01 | 0.34 | 0.34 | 93 | 1004.9 |
| 20260507013331 | 56 | 221 | 2.0 | 8.0 | 0.01 | 0.34 | 0.34 | 92 | 1005.0 |
| 20260507011829 | 57 | 271 | 5.0 | 9.0 | 0.01 | 0.34 | 0.34 | 92 | 1005.0 |
| 20260507010325 | 57 | 256 | 4.0 | 6.0 | 0.00 | 0.33 | 0.33 | 92 | 1005.0 |
| 20260507004828 | 57 | 136 | 1.0 | 2.0 | 0.05 | 0.33 | 0.33 | 92 | 1004.8 |
| 20260507003324 | 57 | 215 | 2.0 | 4.0 | 0.05 | 0.33 | 0.33 | 93 | 1004.7 |
| 20260507001845 | 57 | 263 | 3.0 | 6.0 | 0.05 | 0.33 | 0.33 | 93 | 1004.7 |
| 20260507000323 | 57 | 280 | 1.0 | 6.0 | 0.05 | 0.33 | 0.33 | 93 | 1004.6 |
| 20260506234843 | 57 | 154 | 4.0 | 8.0 | 0.01 | 0.28 | 0.28 | 93 | 1004.5 |
| 20260506233323 | 57 | 59 | 4.0 | 10.0 | 0.01 | 0.28 | 0.28 | 92 | 1004.3 |
| 20260506231823 | 58 | 194 | 4.0 | 10.0 | 0.01 | 0.28 | 0.28 | 92 | 1004.4 |
| 20260506230341 | 58 | 119 | 4.0 | 11.0 | 0.01 | 0.28 | 0.28 | 92 | 1004.2 |
| 20260506224841 | 58 | 132 | 3.0 | 10.0 | 0.01 | 0.27 | 0.27 | 93 | 1004.2 |
| 20260506223321 | 58 | 156 | 4.0 | 11.0 | 0.02 | 0.27 | 0.27 | 93 | 1004.5 |
| 20260506221842 | 58 | 79 | 6.0 | 12.0 | 0.03 | 0.27 | 0.27 | 92 | 1004.5 |
| 20260506220402 | 58 | 118 | 5.0 | 11.0 | 0.05 | 0.27 | 0.27 | 92 | 1004.6 |
| 20260506214841 | 58 | 166 | 4.0 | 17.0 | 0.06 | 0.26 | 0.26 | 92 | 1004.8 |
| 20260506213336 | 58 | 128 | 3.0 | 8.0 | 0.05 | 0.25 | 0.25 | 92 | 1004.9 |
| 20260506211840 | 58 | 93 | 3.0 | 9.0 | 0.07 | 0.24 | 0.24 | 92 | 1005.1 |
| 20260506210337 | 58 | 157 | 2.0 | 9.0 | 0.09 | 0.22 | 0.22 | 92 | 1005.3 |
| 20260506204834 | 58 | 171 | 5.0 | 10.0 | 0.12 | 0.20 | 0.20 | 92 | 1005.5 |
| 20260506203331 | 58 | 167 | 3.0 | 13.0 | 0.12 | 0.19 | 0.19 | 92 | 1005.7 |
| 20260506201829 | 58 | 251 | 4.0 | 11.0 | 0.12 | 0.17 | 0.17 | 92 | 1005.8 |
| 20260506200328 | 59 | 200 | 3.0 | 13.0 | 0.09 | 0.13 | 0.13 | 92 | 1005.6 |
| 20260506194849 | 59 | 223 | 2.0 | 11.0 | 0.04 | 0.08 | 0.08 | 92 | 1005.9 |
| 20260506193345 | 59 | 144 | 5.0 | 11.0 | 0.02 | 0.06 | 0.06 | 92 | 1006.2 |
| 20260506191823 | 59 | 199 | 6.0 | 16.0 | 0.02 | 0.05 | 0.05 | 92 | 1006.2 |
| 20260506190339 | 59 | 189 | 6.0 | 15.0 | 0.02 | 0.04 | 0.04 | 92 | 1006.4 |
| 20260506184843 | 59 | 157 | 5.0 | 11.0 | 0.02 | 0.04 | 0.04 | 92 | 1006.3 |
| 20260506183339 | 59 | 128 | 2.0 | 7.0 | 0.03 | 0.04 | 0.04 | 92 | 1006.6 |
| 20260506181839 | 59 | 87 | 2.0 | 3.0 | 0.03 | 0.03 | 0.03 | 92 | 1006.9 |
| 20260506180335 | 59 | 190 | 3.0 | 11.0 | 0.02 | 0.02 | 0.02 | 91 | 1007.2 |
| 20260506174840 | 60 | 207 | 1.0 | 2.0 | 0.01 | 0.01 | 0.01 | 90 | 1007.2 |
| 20260506173338 | 61 | 212 | 3.0 | 5.0 | 0.01 | 0.01 | 0.01 | 87 | 1007.2 |
| 20260506171838 | 62 | 180 | 0.0 | 3.0 | 0.00 | 0.00 | 0.00 | 86 | 1006.9 |
| 20260506170358 | 62 | 128 | 3.0 | 6.0 | 0.00 | 0.00 | 0.00 | 80 | 1007.1 |
| 20260506164836 | 62 | 230 | 3.0 | 8.0 | 0.00 | 0.00 | 0.00 | 78 | 1007.4 |
| 20260506163336 | 62 | 142 | 4.0 | 7.0 | 0.00 | 0.00 | 0.00 | 78 | 1007.6 |
| 20260506161835 | 62 | 150 | 3.0 | 9.0 | 0.00 | 0.00 | 0.00 | 80 | 1008.2 |
| 20260506160332 | 61 | 173 | 3.0 | 9.0 | 0.00 | 0.00 | 0.00 | 80 | 1008.7 |
| 20260506154831 | 61 | 208 | 4.0 | 6.0 | 0.00 | 0.00 | 0.00 | 79 | 1009.0 |
| 20260506153350 | 61 | 268 | 2.0 | 4.0 | 0.00 | 0.00 | 0.00 | 78 | 1008.9 |
| 20260506151833 | 61 | 245 | 2.0 | 3.0 | 0.00 | 0.00 | 0.00 | 79 | 1008.9 |
| 20260506150331 | 60 | 259 | 1.0 | 4.0 | 0.00 | 0.00 | 0.00 | 79 | 1009.0 |
| 20260506144831 | 61 | 269 | 2.0 | 4.0 | 0.00 | 0.00 | 0.00 | 77 | 1009.0 |
| 20260506143328 | 61 | 283 | 1.0 | 5.0 | 0.00 | 0.00 | 0.00 | 77 | 1008.9 |
| 20260506141854 | 61 | 235 | 3.0 | 5.0 | 0.00 | 0.00 | 0.00 | 76 | 1009.0 |
| 20260506140329 | 62 | 226 | 2.0 | 4.0 | 0.00 | 0.00 | 0.00 | 75 | 1008.9 |
| 20260506134830 | 62 | 238 | 2.0 | 6.0 | 0.00 | 0.00 | 0.00 | 75 | 1009.0 |
| 20260506133326 | 62 | 187 | 4.0 | 6.0 | 0.00 | 0.00 | 0.00 | 74 | 1009.2 |
| 20260506131847 | 61 | 209 | 1.0 | 3.0 | 0.00 | 0.00 | 0.00 | 76 | 1009.1 |
| 20260506130326 | 61 | 200 | 0.0 | 6.0 | 0.00 | 0.00 | 0.00 | 76 | 1009.2 |
| 20260506124827 | 61 | 224 | 2.0 | 4.0 | 0.00 | 0.00 | 0.00 | 75 | 1009.0 |
| 20260506123325 | 61 | 190 | 1.0 | 4.0 | 0.00 | 0.00 | 0.00 | 76 | 1009.2 |
| 20260506121824 | 60 | 123 | 0.0 | 4.0 | 0.00 | 0.00 | 0.00 | 77 | 1009.3 |
| 20260506120321 | 59 | 119 | 1.0 | 2.0 | 0.00 | 0.00 | 0.00 | 79 | 1009.5 |
| 20260506114825 | 58 | 78 | 2.0 | 4.0 | 0.00 | 0.00 | 0.00 | 80 | 1009.5 |
| 20260506113324 | 58 | 130 | 2.0 | 9.0 | 0.00 | 0.00 | 0.00 | 80 | 1009.6 |
| 20260506111822 | 57 | 82 | 2.0 | 7.0 | 0.00 | 0.00 | 0.00 | 81 | 1009.5 |
| 20260506110339 | 57 | 119 | 1.0 | 4.0 | 0.00 | 0.00 | 0.00 | 82 | 1009.6 |
| 20260506104842 | 57 | 69 | 4.0 | 7.0 | 0.00 | 0.00 | 0.00 | 82 | 1009.5 |
| 20260506103338 | 57 | 71 | 3.0 | 6.0 | 0.00 | 0.00 | 0.00 | 83 | 1009.7 |
| 20260506101859 | 57 | 69 | 3.0 | 5.0 | 0.00 | 0.00 | 0.00 | 82 | 1009.3 |
| 20260506100334 | 56 | 60 | 4.0 | 5.0 | 0.00 | 0.00 | 0.00 | 83 | 1009.2 |
| 20260506094832 | 56 | 87 | 2.0 | 8.0 | 0.00 | 0.00 | 0.00 | 84 | 1009.2 |
| 20260506093354 | 57 | 74 | 3.0 | 4.0 | 0.00 | 0.00 | 0.00 | 84 | 1009.1 |
| 20260506091831 | 56 | 67 | 2.0 | 4.0 | 0.00 | 0.00 | 0.00 | 85 | 1009.2 |
| 20260506090327 | 56 | 75 | 3.0 | 4.0 | 0.00 | 0.00 | 0.00 | 86 | 1009.3 |
| 20260506084826 | 56 | 75 | 2.0 | 3.0 | 0.00 | 0.00 | 0.00 | 85 | 1009.2 |
| 20260506083345 | 57 | 76 | 2.0 | 3.0 | 0.00 | 0.00 | 0.00 | 83 | 1009.2 |
| 20260506081848 | 58 | 296 | 0.0 | 2.0 | 0.00 | 0.00 | 0.00 | 81 | 1009.2 |
| 20260506080323 | 59 | 285 | 1.0 | 3.0 | 0.00 | 0.00 | 0.00 | 81 | 1009.1 |
| 20260506073402 | 59 | 275 | 0.0 | 2.0 | 0.00 | 0.00 | 0.00 | 82 | 1009.0 |
| 20260506071903 | 59 | 260 | 0.0 | 5.0 | 0.00 | 0.00 | 0.00 | 82 | 1008.9 |
| 20260506070323 | 59 | 230 | 3.0 | 7.0 | 0.00 | 0.00 | 0.00 | 82 | 1009.0 |
| 20260506061841 | 60 | 208 | 4.0 | 8.0 | 0.00 | 0.00 | 0.00 | 80 | 1008.5 |
| 20260506060337 | 60 | 271 | 2.0 | 7.0 | 0.00 | 0.00 | 0.00 | 80 | 1008.6 |
| 20260506050334 | 60 | 209 | 1.0 | 3.0 | 0.00 | 0.00 | 0.00 | 79 | 1008.8 |
| 20260506044838 | 60 | 161 | 1.0 | 2.0 | 0.00 | 0.00 | 0.00 | 79 | 1008.9 |
| 20260506043336 | 60 | 161 | 0.0 | 2.0 | 0.00 | 0.00 | 0.00 | 78 | 1008.8 |
| 20260506041835 | 60 | 147 | 1.0 | 2.0 | 0.00 | 0.00 | 0.00 | 77 | 1009.0 |
| 20260506040330 | 61 | 258 | 1.0 | 3.0 | 0.00 | 0.00 | 0.00 | 76 | 1008.9 |
| 20260506034851 | 61 | 231 | 1.0 | 6.0 | 0.00 | 0.00 | 0.00 | 75 | 1009.1 |
| 20260506031831 | 62 | 269 | 3.0 | 4.0 | 0.00 | 0.00 | 0.00 | 73 | 1008.9 |
| 20260506030327 | 62 | 208 | 3.0 | 6.0 | 0.00 | 0.00 | 0.00 | 71 | 1008.7 |
| 20260506024826 | 62 | 182 | 2.0 | 7.0 | 0.00 | 0.00 | 0.00 | 71 | 1008.7 |
| 20260506023344 | 63 | 61 | 2.0 | 3.0 | 0.00 | 0.00 | 0.00 | 69 | 1008.7 |
| 20260506021848 | 64 | 170 | 2.0 | 6.0 | 0.00 | 0.00 | 0.00 | 66 | 1008.6 |